| time (UTC) | temp F | wind direction | speed MPH | gust MPH | rain 1hr in | rain 24hr in | rain mn in | humidity % | barometer mb |
| 20260503192604 | 64 | 248 | 1.0 | 7.0 | 0.00 | 0.00 | 0.00 | 47 | 1011.3 |
| 20260503192117 | 64 | 195 | 0.0 | 8.0 | 0.00 | 0.00 | 0.00 | 48 | 1011.6 |
| 20260503191603 | 64 | 179 | 1.0 | 8.0 | 0.00 | 0.00 | 0.00 | 47 | 1011.4 |
| 20260503191101 | 64 | 275 | 2.0 | 7.0 | 0.00 | 0.00 | 0.00 | 46 | 1011.3 |
| 20260503190603 | 64 | 251 | 2.0 | 6.0 | 0.00 | 0.00 | 0.00 | 46 | 1011.7 |
| 20260503185601 | 64 | 283 | 5.0 | 6.0 | 0.00 | 0.00 | 0.00 | 46 | 1011.9 |
| 20260503185319 | 64 | 327 | 0.0 | 6.0 | 0.00 | 0.00 | 0.00 | 49 | 1011.8 |
| 20260503184612 | 64 | 53 | 0.0 | 6.0 | 0.00 | 0.00 | 0.00 | 49 | 1011.9 |
| 20260503184059 | 63 | 274 | 3.0 | 6.0 | 0.00 | 0.00 | 0.00 | 47 | 1011.8 |
| 20260503183600 | 63 | 190 | 1.0 | 6.0 | 0.00 | 0.00 | 0.00 | 49 | 1012.2 |
| 20260503183101 | 64 | 290 | 2.0 | 6.0 | 0.00 | 0.00 | 0.00 | 49 | 1012.1 |
| 20260503182600 | 63 | 116 | 1.0 | 6.0 | 0.00 | 0.00 | 0.00 | 50 | 1012.2 |
| 20260503182058 | 62 | 295 | 3.0 | 6.0 | 0.00 | 0.00 | 0.00 | 49 | 1012.1 |
| 20260503181559 | 62 | 334 | 2.0 | 7.0 | 0.00 | 0.00 | 0.00 | 52 | 1012.3 |
| 20260503181106 | 61 | 96 | 3.0 | 7.0 | 0.00 | 0.00 | 0.00 | 52 | 1012.2 |
| 20260503180557 | 61 | 107 | 1.0 | 7.0 | 0.00 | 0.00 | 0.00 | 52 | 1012.5 |
| 20260503180058 | 62 | 218 | 2.0 | 7.0 | 0.00 | 0.00 | 0.00 | 49 | 1012.7 |
| 20260503175558 | 62 | 314 | 0.0 | 5.0 | 0.00 | 0.00 | 0.00 | 50 | 1012.6 |
| 20260503175055 | 62 | 341 | 4.0 | 5.0 | 0.00 | 0.00 | 0.00 | 50 | 1012.7 |
| 20260503174558 | 62 | 113 | 3.0 | 0.0 | 0.00 | 0.00 | 0.00 | 50 | 1012.9 |
| 20260503173538 | 62 | 311 | 2.0 | 6.0 | 0.00 | 0.00 | 0.00 | 50 | 1013.1 |
| 20260503173040 | 62 | 307 | 2.0 | 9.0 | 0.00 | 0.00 | 0.00 | 50 | 1012.9 |
| 20260503172545 | 61 | 295 | 1.0 | 9.0 | 0.00 | 0.00 | 0.00 | 50 | 1013.0 |
| 20260503172045 | 61 | 189 | 2.0 | 9.0 | 0.00 | 0.00 | 0.00 | 51 | 1012.9 |
| 20260503171537 | 60 | 143 | 1.0 | 6.0 | 0.00 | 0.00 | 0.00 | 53 | 1013.1 |
| 20260503171037 | 60 | 148 | 5.0 | 6.0 | 0.00 | 0.00 | 0.00 | 52 | 1013.2 |
| 20260503170531 | 60 | 261 | 3.0 | 6.0 | 0.00 | 0.00 | 0.00 | 53 | 1013.4 |
| 20260503150526 | 56 | 114 | 0.0 | 6.0 | 0.00 | 0.00 | 0.00 | 58 | 1014.2 |
| 20260503131012 | 44 | 16 | 1.0 | 4.0 | 0.00 | 0.00 | 0.00 | 64 | 1014.9 |
| 20260503130511 | 44 | 57 | 2.0 | 4.0 | 0.00 | 0.00 | 0.00 | 64 | 1015.1 |
| 20260503110720 | 37 | 77 | 1.0 | 3.0 | 0.00 | 0.00 | 0.00 | 66 | 1014.5 |
| 20260503081449 | 36 | 70 | 1.0 | 2.0 | 0.00 | 0.00 | 0.00 | 67 | 1015.4 |
| 20260503080949 | 36 | 125 | 2.0 | 2.0 | 0.00 | 0.00 | 0.00 | 67 | 1015.5 |
| 20260503080448 | 36 | 89 | 0.0 | 2.0 | 0.00 | 0.00 | 0.00 | 67 | 1015.5 |
| 20260503072455 | 36 | 87 | 1.0 | 2.0 | 0.00 | 0.00 | 0.00 | 68 | 1015.4 |
| 20260503071946 | 36 | 89 | 1.0 | 2.0 | 0.00 | 0.00 | 0.00 | 68 | 1015.6 |
| 20260503071445 | 36 | 86 | 1.0 | 2.0 | 0.00 | 0.00 | 0.00 | 69 | 1015.5 |
| 20260503070946 | 35 | 89 | 2.0 | 2.0 | 0.00 | 0.00 | 0.00 | 69 | 1015.6 |
| 20260503070703 | 35 | 104 | 1.0 | 2.0 | 0.00 | 0.00 | 0.00 | 69 | 1015.6 |
| 20260503054942 | 35 | 83 | 1.0 | 2.0 | 0.00 | 0.00 | 0.00 | 68 | 1016.0 |
| 20260503054442 | 35 | 91 | 1.0 | 2.0 | 0.00 | 0.00 | 0.00 | 68 | 1016.1 |
| 20260503053947 | 35 | 93 | 1.0 | 2.0 | 0.00 | 0.00 | 0.00 | 68 | 1016.1 |
| 20260503053440 | 35 | 94 | 1.0 | 2.0 | 0.00 | 0.00 | 0.00 | 68 | 1016.1 |
| 20260503052942 | 35 | 99 | 1.0 | 2.0 | 0.00 | 0.00 | 0.00 | 68 | 1016.1 |
| 20260503052440 | 35 | 97 | 1.0 | 2.0 | 0.00 | 0.00 | 0.00 | 67 | 1016.2 |
| 20260503051941 | 35 | 91 | 1.0 | 2.0 | 0.00 | 0.00 | 0.00 | 67 | 1016.2 |
| 20260503051440 | 35 | 93 | 0.0 | 1.0 | 0.00 | 0.00 | 0.00 | 67 | 1016.0 |
| 20260503051046 | 35 | 69 | 0.0 | 1.0 | 0.00 | 0.00 | 0.00 | 67 | 1016.0 |
| 20260503045940 | 35 | 76 | 0.0 | 1.0 | 0.00 | 0.00 | 0.00 | 67 | 1016.3 |
| 20260503045439 | 35 | 69 | 0.0 | 1.0 | 0.00 | 0.00 | 0.00 | 67 | 1016.2 |
| 20260503044940 | 35 | 91 | 1.0 | 1.0 | 0.00 | 0.00 | 0.00 | 67 | 1016.4 |
| 20260503044439 | 36 | 103 | 0.0 | 1.0 | 0.00 | 0.00 | 0.00 | 66 | 1016.3 |
| 20260503043940 | 36 | 86 | 0.0 | 2.0 | 0.00 | 0.00 | 0.00 | 66 | 1016.4 |
| 20260503043710 | 36 | 73 | 0.0 | 2.0 | 0.00 | 0.00 | 0.00 | 66 | 1016.2 |
| 20260503043200 | 36 | 82 | 1.0 | 2.0 | 0.00 | 0.00 | 0.00 | 66 | 1016.3 |
| 20260503042437 | 36 | 77 | 1.0 | 2.0 | 0.00 | 0.00 | 0.00 | 66 | 1016.4 |
| 20260503041938 | 36 | 88 | 1.0 | 2.0 | 0.00 | 0.00 | 0.00 | 65 | 1016.3 |
| 20260503041437 | 36 | 97 | 1.0 | 2.0 | 0.00 | 0.00 | 0.00 | 65 | 1016.2 |
| 20260503040937 | 36 | 84 | 1.0 | 2.0 | 0.00 | 0.00 | 0.00 | 65 | 1016.4 |
| 20260503040436 | 36 | 94 | 1.0 | 2.0 | 0.00 | 0.00 | 0.00 | 65 | 1016.5 |
| 20260503035940 | 36 | 89 | 1.0 | 2.0 | 0.00 | 0.00 | 0.00 | 65 | 1016.4 |
| 20260503035435 | 37 | 94 | 1.0 | 2.0 | 0.00 | 0.00 | 0.00 | 65 | 1016.3 |
| 20260503034936 | 37 | 97 | 1.0 | 2.0 | 0.00 | 0.00 | 0.00 | 64 | 1016.5 |
| 20260503034435 | 37 | 93 | 1.0 | 1.0 | 0.00 | 0.00 | 0.00 | 64 | 1016.6 |
| 20260503033936 | 37 | 96 | 1.0 | 1.0 | 0.00 | 0.00 | 0.00 | 64 | 1016.5 |
| 20260503033654 | 37 | 89 | 0.0 | 1.0 | 0.00 | 0.00 | 0.00 | 64 | 1016.3 |
| 20260503032937 | 37 | 89 | 0.0 | 1.0 | 0.00 | 0.00 | 0.00 | 63 | 1016.6 |
| 20260503032434 | 37 | 103 | 0.0 | 0.0 | 0.00 | 0.00 | 0.00 | 63 | 1016.7 |
| 20260503031936 | 38 | 103 | 0.0 | 0.0 | 0.00 | 0.00 | 0.00 | 63 | 1016.6 |
| 20260503031434 | 38 | 103 | 0.0 | 1.0 | 0.00 | 0.00 | 0.00 | 62 | 1016.5 |
| 20260503030935 | 38 | 113 | 0.0 | 2.0 | 0.00 | 0.00 | 0.00 | 62 | 1016.5 |
| 20260503030433 | 38 | 87 | 0.0 | 2.0 | 0.00 | 0.00 | 0.00 | 62 | 1016.7 |
| 20260503025942 | 38 | 100 | 1.0 | 2.0 | 0.00 | 0.00 | 0.00 | 62 | 1016.6 |
| 20260503025433 | 39 | 86 | 1.0 | 2.0 | 0.00 | 0.00 | 0.00 | 61 | 1016.9 |
| 20260503024934 | 39 | 78 | 1.0 | 2.0 | 0.00 | 0.00 | 0.00 | 61 | 1016.5 |
| 20260503024432 | 39 | 81 | 1.0 | 2.0 | 0.00 | 0.00 | 0.00 | 61 | 1016.7 |
| 20260503023934 | 39 | 97 | 1.0 | 2.0 | 0.00 | 0.00 | 0.00 | 60 | 1016.7 |
| 20260503023432 | 40 | 104 | 1.0 | 2.0 | 0.00 | 0.00 | 0.00 | 60 | 1016.6 |
| 20260503022945 | 40 | 89 | 1.0 | 2.0 | 0.00 | 0.00 | 0.00 | 60 | 1016.7 |
| 20260503022912 | 40 | 93 | 1.0 | 2.0 | 0.00 | 0.00 | 0.00 | 60 | 1016.6 |
| 20260503021933 | 40 | 86 | 1.0 | 2.0 | 0.00 | 0.00 | 0.00 | 59 | 1016.5 |
| 20260503021432 | 41 | 87 | 1.0 | 2.0 | 0.00 | 0.00 | 0.00 | 59 | 1016.4 |
| 20260503020933 | 41 | 105 | 0.0 | 2.0 | 0.00 | 0.00 | 0.00 | 59 | 1016.6 |
| 20260503020431 | 41 | 107 | 1.0 | 2.0 | 0.00 | 0.00 | 0.00 | 58 | 1016.5 |
| 20260503020200 | 41 | 92 | 1.0 | 2.0 | 0.00 | 0.00 | 0.00 | 58 | 1016.4 |
| 20260503015436 | 42 | 94 | 1.0 | 2.0 | 0.00 | 0.00 | 0.00 | 57 | 1016.4 |
| 20260503014934 | 42 | 97 | 1.0 | 2.0 | 0.00 | 0.00 | 0.00 | 57 | 1016.2 |
| 20260503014926 | 42 | 97 | 1.0 | 2.0 | 0.00 | 0.00 | 0.00 | 57 | 1016.6 |
| 20260503013931 | 43 | 104 | 1.0 | 2.0 | 0.00 | 0.00 | 0.00 | 56 | 1016.3 |
| 20260503013429 | 43 | 97 | 1.0 | 2.0 | 0.00 | 0.00 | 0.00 | 56 | 1016.4 |
| 20260503012931 | 43 | 96 | 1.0 | 2.0 | 0.00 | 0.00 | 0.00 | 56 | 1016.4 |
| 20260503012429 | 44 | 82 | 1.0 | 2.0 | 0.00 | 0.00 | 0.00 | 56 | 1016.3 |
| 20260503011936 | 44 | 89 | 0.0 | 2.0 | 0.00 | 0.00 | 0.00 | 56 | 1016.0 |
| 20260503011429 | 44 | 89 | 0.0 | 2.0 | 0.00 | 0.00 | 0.00 | 55 | 1016.3 |
| 20260503010929 | 44 | 94 | 1.0 | 2.0 | 0.00 | 0.00 | 0.00 | 55 | 1016.5 |
| 20260503010652 | 44 | 89 | 0.0 | 2.0 | 0.00 | 0.00 | 0.00 | 55 | 1016.2 |
| 20260503005929 | 44 | 89 | 1.0 | 2.0 | 0.00 | 0.00 | 0.00 | 54 | 1016.4 |
| 20260503005427 | 45 | 85 | 1.0 | 2.0 | 0.00 | 0.00 | 0.00 | 53 | 1016.3 |
| 20260503004940 | 45 | 88 | 1.0 | 2.0 | 0.00 | 0.00 | 0.00 | 53 | 1016.1 |
| 20260503004429 | 45 | 89 | 1.0 | 2.0 | 0.00 | 0.00 | 0.00 | 53 | 1016.2 |
| 20260503003929 | 46 | 97 | 1.0 | 2.0 | 0.00 | 0.00 | 0.00 | 52 | 1016.4 |
| 20260503003646 | 46 | 112 | 0.0 | 2.0 | 0.00 | 0.00 | 0.00 | 52 | 1016.1 |
| 20260503003147 | 46 | 89 | 1.0 | 2.0 | 0.00 | 0.00 | 0.00 | 52 | 1016.2 |
| 20260503002426 | 46 | 82 | 1.0 | 2.0 | 0.00 | 0.00 | 0.00 | 52 | 1016.3 |
| 20260503001928 | 47 | 108 | 1.0 | 2.0 | 0.00 | 0.00 | 0.00 | 52 | 1016.1 |
| 20260503001433 | 47 | 79 | 0.0 | 2.0 | 0.00 | 0.00 | 0.00 | 51 | 1016.1 |
| 20260503000927 | 47 | 87 | 1.0 | 3.0 | 0.00 | 0.00 | 0.00 | 51 | 1016.3 |
| 20260503000645 | 47 | 87 | 0.0 | 3.0 | 0.00 | 0.00 | 0.00 | 51 | 1016.3 |
| 20260503000150 | 47 | 30 | 0.0 | 2.0 | 0.00 | 0.00 | 0.00 | 51 | 1016.2 |
| 20260502235643 | 47 | 92 | 0.0 | 3.0 | 0.00 | 0.00 | 0.00 | 50 | 1016.3 |
| 20260502234925 | 47 | 116 | 1.0 | 3.0 | 0.00 | 0.00 | 0.00 | 50 | 1016.1 |
| 20260502234423 | 48 | 60 | 2.0 | 3.0 | 0.00 | 0.00 | 0.00 | 50 | 1016.1 |
| 20260502233930 | 48 | 218 | 1.0 | 2.0 | 0.00 | 0.00 | 0.00 | 51 | 1016.2 |
| 20260502233422 | 48 | 77 | 1.0 | 3.0 | 0.00 | 0.00 | 0.00 | 51 | 1016.4 |
| 20260502232923 | 48 | 77 | 1.0 | 3.0 | 0.00 | 0.00 | 0.00 | 51 | 1016.0 |
| 20260502232422 | 48 | 105 | 0.0 | 2.0 | 0.00 | 0.00 | 0.00 | 50 | 1015.9 |
| 20260502231923 | 48 | 72 | 1.0 | 3.0 | 0.00 | 0.00 | 0.00 | 50 | 1016.4 |
| 20260502231432 | 48 | 217 | 0.0 | 3.0 | 0.00 | 0.00 | 0.00 | 50 | 1016.4 |
| 20260502231153 | 48 | 153 | 2.0 | 3.0 | 0.00 | 0.00 | 0.00 | 50 | 1016.5 |
| 20260502230420 | 48 | 63 | 0.0 | 2.0 | 0.00 | 0.00 | 0.00 | 50 | 1016.4 |
| 20260502225922 | 48 | 99 | 2.0 | 2.0 | 0.00 | 0.00 | 0.00 | 50 | 1016.5 |
| 20260502225420 | 48 | 117 | 0.0 | 2.0 | 0.00 | 0.00 | 0.00 | 50 | 1016.4 |
| 20260502224921 | 48 | 80 | 1.0 | 3.0 | 0.00 | 0.00 | 0.00 | 50 | 1016.3 |
| 20260502224419 | 48 | 46 | 2.0 | 3.0 | 0.00 | 0.00 | 0.00 | 50 | 1016.1 |
| 20260502223920 | 48 | 47 | 2.0 | 3.0 | 0.00 | 0.00 | 0.00 | 50 | 1016.3 |
| 20260502223426 | 48 | 135 | 0.0 | 4.0 | 0.00 | 0.00 | 0.00 | 50 | 1016.4 |
| 20260502222921 | 48 | 108 | 1.0 | 4.0 | 0.00 | 0.00 | 0.00 | 50 | 1016.4 |
| 20260502222644 | 48 | 55 | 2.0 | 4.0 | 0.00 | 0.00 | 0.00 | 49 | 1016.5 |
| 20260502221919 | 49 | 47 | 2.0 | 4.0 | 0.00 | 0.00 | 0.00 | 49 | 1016.4 |
| 20260502221418 | 49 | 62 | 0.0 | 4.0 | 0.00 | 0.00 | 0.00 | 49 | 1016.5 |
| 20260502220919 | 49 | 151 | 0.0 | 4.0 | 0.00 | 0.00 | 0.00 | 50 | 1016.2 |
| 20260502220416 | 49 | 108 | 2.0 | 3.0 | 0.00 | 0.00 | 0.00 | 50 | 1016.5 |
| 20260502215929 | 48 | 59 | 2.0 | 3.0 | 0.00 | 0.00 | 0.00 | 50 | 1016.4 |
| 20260502215417 | 48 | 33 | 2.0 | 5.0 | 0.00 | 0.00 | 0.00 | 50 | 1016.3 |
| 20260502214943 | 49 | 51 | 3.0 | 5.0 | 0.00 | 0.00 | 0.00 | 50 | 1016.3 |
| 20260502214415 | 49 | 94 | 4.0 | 5.0 | 0.00 | 0.00 | 0.00 | 50 | 1016.1 |
| 20260502213916 | 49 | 56 | 1.0 | 3.0 | 0.00 | 0.00 | 0.00 | 49 | 1016.4 |
| 20260502213415 | 49 | 15 | 2.0 | 4.0 | 0.00 | 0.00 | 0.00 | 49 | 1016.4 |
| 20260502212916 | 49 | 88 | 2.0 | 4.0 | 0.00 | 0.00 | 0.00 | 49 | 1016.5 |
| 20260502212637 | 49 | 62 | 0.0 | 6.0 | 0.00 | 0.00 | 0.00 | 49 | 1016.4 |
| 20260502211915 | 49 | 51 | 2.0 | 6.0 | 0.00 | 0.00 | 0.00 | 49 | 1016.4 |
| 20260502211413 | 49 | 63 | 1.0 | 5.0 | 0.00 | 0.00 | 0.00 | 49 | 1016.3 |
| 20260502211354 | 49 | 103 | 1.0 | 3.0 | 0.00 | 0.00 | 0.00 | 49 | 1016.4 |
| 20260502210412 | 49 | 271 | 2.0 | 3.0 | 0.00 | 0.00 | 0.00 | 49 | 1016.6 |
| 20260502205909 | 49 | 227 | 0.0 | 3.0 | 0.00 | 0.00 | 0.00 | 49 | 1016.4 |
| 20260502205412 | 49 | 102 | 0.0 | 4.0 | 0.00 | 0.00 | 0.00 | 49 | 1016.4 |
| 20260502205128 | 49 | 50 | 2.0 | 4.0 | 0.00 | 0.00 | 0.00 | 49 | 1016.5 |
| 20260502204407 | 49 | 159 | 1.0 | 4.0 | 0.00 | 0.00 | 0.00 | 50 | 1016.6 |
| 20260502203910 | 49 | 86 | 2.0 | 4.0 | 0.00 | 0.00 | 0.00 | 51 | 1016.6 |
| 20260502203410 | 49 | 95 | 1.0 | 4.0 | 0.00 | 0.00 | 0.00 | 51 | 1016.6 |
| 20260502202907 | 49 | 116 | 1.0 | 4.0 | 0.00 | 0.00 | 0.00 | 50 | 1016.7 |
| 20260502202420 | 49 | 84 | 4.0 | 4.0 | 0.00 | 0.00 | 0.00 | 50 | 1017.0 |
| 20260502201908 | 49 | 29 | 1.0 | 3.0 | 0.00 | 0.00 | 0.00 | 50 | 1016.8 |
| 20260502201408 | 49 | 77 | 0.0 | 3.0 | 0.00 | 0.00 | 0.00 | 50 | 1016.9 |
| 20260502200907 | 50 | 109 | 1.0 | 4.0 | 0.00 | 0.00 | 0.00 | 49 | 1016.8 |
| 20260502200408 | 50 | 108 | 2.0 | 4.0 | 0.00 | 0.00 | 0.00 | 50 | 1017.1 |
| 20260502195907 | 50 | 29 | 3.0 | 4.0 | 0.00 | 0.00 | 0.00 | 50 | 1016.9 |
| 20260502195417 | 50 | 47 | 0.0 | 4.0 | 0.00 | 0.00 | 0.00 | 50 | 1017.0 |
| 20260502194906 | 49 | 43 | 2.0 | 4.0 | 0.00 | 0.00 | 0.00 | 50 | 1017.0 |
| 20260502194407 | 49 | 54 | 2.0 | 4.0 | 0.00 | 0.00 | 0.00 | 49 | 1017.2 |
| 20260502193905 | 49 | 322 | 1.0 | 4.0 | 0.00 | 0.00 | 0.00 | 49 | 1016.8 |